KOREASAT 7 (42691 NORAD) Tracking and Keplerian Element Data

This shows tracking and keplerian element data for the satellite.

Feedback or suggestion? Click here.




ElementValue
Catalog42691
NameKOREASAT 7
Epoch Orbit591
Epoch Day350.44183768
Epoch Year2018
RAAN64.6479
Inclination0.0301
Eccentricity0.0001546
Argument of Perigee194.2428
Mean Anonmoly101.1077
Mean Motion1.00272357
Decay Rate-3.48E-06
L11 42691U 17023A 18350.44183768 -.00000348 00000-0 00000-0 0 9999
L22 42691 0.0301 64.6479 0001546 194.2428 101.1077 1.00272357 5919

Live tracking and technical data element details for KOREASAT 7 (NORAD 42691). KOREASAT 7 can be tracked NOW for your location showing map with azimuth and elevation plus other details from your city location.

Track the satellite on the map from your city or location and see movement details for azimuth, elevation, latitude, longitude, range, height, and movement on the map or in text.







IsCatalogInMostPopularTable: catalog: 42691, numindb: 123
Update: records affected: 1



GetName: 42691 KOREASAT 7

Hit Count: updated at: Tue, 18 Dec 2018 22:18:09 GMT